Previsão horária em Abramy

Hoje, 9 Maio, Domingo

Tempo Temperatura Precipitação Vento Pressão Humidade
00:00 +3°C° 0 mm 1 m/s 747 mmHg 85%
01:00 +2°C° 0 mm 2 m/s 747 mmHg 85%
02:00 +2°C° 0 mm 2 m/s 747 mmHg 86%
03:00 +2°C° 0 mm 2 m/s 747 mmHg 87%
04:00 +2°C° 0 mm 2 m/s 747 mmHg 87%
05:00 +3°C° 0 mm 3 m/s 747 mmHg 82%
06:00 +5°C° 0 mm 3 m/s 747 mmHg 77%
07:00 +6°C° 0 mm 4 m/s 747 mmHg 72%
08:00 +8°C° 0 mm 4 m/s 747 mmHg 66%
09:00 +10°C° 0 mm 5 m/s 747 mmHg 60%
10:00 +13°C° 0 mm 5 m/s 747 mmHg 54%
11:00 +14°C° 0 mm 5 m/s 747 mmHg 52%
12:00 +14°C° 0 mm 5 m/s 747 mmHg 51%
13:00 +15°C° 0 mm 5 m/s 747 mmHg 49%
14:00 +15°C° 0 mm 5 m/s 746 mmHg 53%
15:00 +15°C° 0 mm 5 m/s 746 mmHg 56%
16:00 +15°C° 0 mm 4 m/s 746 mmHg 60%
17:00 +14°C° 0 mm 4 m/s 746 mmHg 66%
18:00 +12°C° 0 mm 4 m/s 746 mmHg 72%
19:00 +11°C° 0 mm 4 m/s 746 mmHg 78%
20:00 +10°C° 0 mm 4 m/s 746 mmHg 79%
21:00 +10°C° 0 mm 4 m/s 746 mmHg 80%
22:00 +9°C° 0 mm 5 m/s 746 mmHg 80%
23:00 +8°C° 0 mm 5 m/s 746 mmHg 83%

Amanhã, 10 Maio, Segunda-feira

Tempo Temperatura Precipitação Vento Pressão Humidade
00:00 +7°C° 0 mm 4 m/s 746 mmHg 85%
01:00 +7°C° 0 mm 4 m/s 746 mmHg 88%
02:00 +6°C° 0 mm 4 m/s 746 mmHg 87%
03:00 +6°C° 0 mm 4 m/s 746 mmHg 86%
04:00 +6°C° 0 mm 4 m/s 746 mmHg 85%
05:00 +8°C° 0 mm 5 m/s 746 mmHg 80%
06:00 +9°C° 0 mm 6 m/s 746 mmHg 75%
07:00 +11°C° 0 mm 6 m/s 746 mmHg 70%
08:00 +14°C° 0 mm 7 m/s 746 mmHg 65%
09:00 +16°C° 0 mm 7 m/s 746 mmHg 60%
10:00 +17°C° 0 mm 8 m/s 746 mmHg 55%
11:00 +18°C° 0 mm 8 m/s 745 mmHg 54%
12:00 +20°C° 0 mm 8 m/s 745 mmHg 54%
13:00 +21°C° 0 mm 8 m/s 745 mmHg 53%
14:00 +21°C° 0 mm 8 m/s 745 mmHg 56%
15:00 +21°C° 0 mm 7 m/s 745 mmHg 59%
16:00 +20°C° 0 mm 7 m/s 744 mmHg 62%
17:00 +18°C° 0 mm 7 m/s 745 mmHg 66%
18:00 +17°C° 0 mm 7 m/s 745 mmHg 70%
19:00 +15°C° 0 mm 6 m/s 745 mmHg 74%
20:00 +15°C° 0 mm 6 m/s 745 mmHg 76%
21:00 +14°C° 0 mm 6 m/s 745 mmHg 79%
22:00 +13°C° 0 mm 6 m/s 745 mmHg 81%
23:00 +11°C° 0 mm 6 m/s 745 mmHg 82%

Depois de amanhã, 11 Maio, Terça-feira

Tempo Temperatura Precipitação Vento Pressão Humidade
00:00 +11°C° 0 mm 6 m/s 745 mmHg 84%
01:00 +10°C° 0 mm 5 m/s 745 mmHg 86%
02:00 +10°C° 0 mm 5 m/s 745 mmHg 85%
03:00 +9°C° 0 mm 6 m/s 744 mmHg 85%
04:00 +9°C° 0 mm 6 m/s 744 mmHg 84%
05:00 +10°C° 0 mm 6 m/s 744 mmHg 81%
06:00 +11°C° 0 mm 7 m/s 744 mmHg 78%
07:00 +12°C° 0 mm 8 m/s 744 mmHg 75%
08:00 +15°C° 0 mm 8 m/s 744 mmHg 70%
09:00 +16°C° 0 mm 9 m/s 744 mmHg 66%
10:00 +18°C° 0 mm 9 m/s 744 mmHg 61%
11:00 +19°C° 0 mm 9 m/s 744 mmHg 60%
12:00 +19°C° 0 mm 9 m/s 744 mmHg 60%
13:00 +21°C° 0 mm 9 m/s 744 mmHg 59%
14:00 +21°C° 0 mm 8 m/s 743 mmHg 60%
15:00 +20°C° 0 mm 8 m/s 743 mmHg 62%
16:00 +20°C° 0 mm 8 m/s 743 mmHg 63%
17:00 +17°C° 0 mm 8 m/s 743 mmHg 64%
18:00 +16°C° 0 mm 7 m/s 743 mmHg 65%
19:00 +14°C° 0 mm 7 m/s 743 mmHg 66%
20:00 +14°C° 0 mm 7 m/s 743 mmHg 65%
21:00 +12°C° 0 mm 7 m/s 743 mmHg 63%
22:00 +11°C° 0 mm 7 m/s 743 mmHg 62%
23:00 +11°C° 0 mm 7 m/s 742 mmHg 66%

12 Maio, Quarta-feira

Tempo Temperatura Precipitação Vento Pressão Humidade
00:00 +11°C° 0 mm 7 m/s 742 mmHg 71%
01:00 +10°C° 0 mm 7 m/s 742 mmHg 75%
02:00 +10°C° 0 mm 7 m/s 742 mmHg 78%
03:00 +10°C° 0 mm 7 m/s 741 mmHg 81%
04:00 +10°C° 0 mm 7 m/s 741 mmHg 83%
05:00 +11°C° 0 mm 7 m/s 741 mmHg 82%
06:00 +12°C° 0 mm 7 m/s 741 mmHg 81%
07:00 +13°C° 0 mm 8 m/s 741 mmHg 80%
08:00 +15°C° 0 mm 8 m/s 741 mmHg 73%
09:00 +16°C° 0 mm 8 m/s 741 mmHg 66%
10:00 +17°C° 0 mm 9 m/s 741 mmHg 59%
11:00 +18°C° 0 mm 8 m/s 741 mmHg 56%
12:00 +18°C° 0 mm 8 m/s 740 mmHg 53%
13:00 +18°C° 0 mm 8 m/s 740 mmHg 50%
14:00 +18°C° 0 mm 8 m/s 740 mmHg 54%
15:00 +18°C° 0 mm 7 m/s 740 mmHg 57%
16:00 +19°C° 0 mm 6 m/s 739 mmHg 61%
17:00 +16°C° 0 mm 6 m/s 739 mmHg 65%
18:00 +14°C° 0 mm 6 m/s 739 mmHg 70%
19:00 +11°C° 0 mm 6 m/s 739 mmHg 74%
20:00 +11°C° 0 mm 6 m/s 739 mmHg 75%
21:00 +10°C° 0 mm 6 m/s 739 mmHg 75%
22:00 +10°C° 0 mm 6 m/s 739 mmHg 76%
23:00 +9°C° 0 mm 6 m/s 738 mmHg 79%

13 Maio, Quinta-feira

Tempo Temperatura Precipitação Vento Pressão Humidade
00:00 +9°C° 0 mm 6 m/s 738 mmHg 82%
01:00 +8°C° 0 mm 5 m/s 738 mmHg 86%
02:00 +7°C° 0 mm 5 m/s 738 mmHg 89%
03:00 +6°C° 0 mm 5 m/s 737 mmHg 93%
04:00 +5°C° 0 mm 5 m/s 737 mmHg 96%
05:00 +6°C° 0 mm 5 m/s 737 mmHg 91%
06:00 +8°C° 0 mm 5 m/s 737 mmHg 86%
07:00 +9°C° 0 mm 6 m/s 737 mmHg 80%
08:00 +9°C° 0.1 mm 6 m/s 737 mmHg 77%
09:00 +10°C° 0.1 mm 5 m/s 736 mmHg 73%
10:00 +12°C° 0.1 mm 5 m/s 736 mmHg 69%
11:00 +12°C° 0.2 mm 5 m/s 736 mmHg 69%
12:00 +12°C° 0.2 mm 5 m/s 736 mmHg 68%
13:00 +12°C° 0.2 mm 4 m/s 736 mmHg 68%
14:00 +12°C° 0.1 mm 4 m/s 736 mmHg 68%
15:00 +12°C° 0.1 mm 4 m/s 735 mmHg 69%
16:00 +12°C° 0.1 mm 3 m/s 735 mmHg 69%
17:00 +11°C° 0 mm 3 m/s 735 mmHg 74%
18:00 +10°C° 0 mm 2 m/s 735 mmHg 79%
19:00 +9°C° 0 mm 2 m/s 735 mmHg 84%
20:00 +9°C° 0 mm 1 m/s 735 mmHg 86%
21:00 +8°C° 0 mm 1 m/s 735 mmHg 89%
22:00 +7°C° 0 mm 1 m/s 735 mmHg 91%
23:00 +7°C° 0 mm 1 m/s 735 mmHg 91%

14 Maio, Sexta-feira

Tempo Temperatura Precipitação Vento Pressão Humidade
00:00 +7°C° 0 mm 1 m/s 735 mmHg 91%
01:00 +7°C° 0 mm 1 m/s 736 mmHg 92%
02:00 +6°C° 0 mm 2 m/s 736 mmHg 92%
03:00 +6°C° 0 mm 2 m/s 736 mmHg 93%
04:00 +6°C° 0 mm 2 m/s 736 mmHg 93%
05:00 +7°C° 0 mm 2 m/s 736 mmHg 88%
06:00 +9°C° 0 mm 3 m/s 736 mmHg 83%
07:00 +11°C° 0 mm 3 m/s 736 mmHg 78%
08:00 +12°C° 0 mm 3 m/s 737 mmHg 71%
09:00 +13°C° 0 mm 4 m/s 737 mmHg 65%
10:00 +15°C° 0 mm 4 m/s 737 mmHg 59%
11:00 +15°C° 0.1 mm 4 m/s 737 mmHg 63%
12:00 +14°C° 0.1 mm 4 m/s 737 mmHg 68%
13:00 +14°C° 0.1 mm 4 m/s 738 mmHg 72%
14:00 +14°C° 0.1 mm 3 m/s 738 mmHg 74%
15:00 +14°C° 0.1 mm 3 m/s 738 mmHg 76%
16:00 +15°C° 0.1 mm 2 m/s 738 mmHg 77%
17:00 +14°C° 0.2 mm 2 m/s 738 mmHg 81%
18:00 +13°C° 0.2 mm 2 m/s 739 mmHg 85%
19:00 +12°C° 0.2 mm 1 m/s 739 mmHg 88%
20:00 +12°C° 0 mm 2 m/s 739 mmHg 90%
21:00 +10°C° 0 mm 2 m/s 739 mmHg 91%
22:00 +10°C° 0 mm 2 m/s 740 mmHg 93%
23:00 +9°C° 0 mm 2 m/s 740 mmHg 93%
Mostrar mais

Necessitamos do seu Consentimento

A Meteoprog e os seus Fornecedores de Serviços podem armazenar e aceder a dados pessoais como cookies, identificadores do dispositivo ou outras tecnologias semelhantes existentes no seu dispositivo e processar estes dados para personalizar conteúdos e anúncios, assim como funcionalidades nas redes sociais e análise de tráfego.

  • Armazenar e/ou aceder a informações no seu dispositivo

    Os cookies, identificadores do dispositivo ou outras informações podem ser armazenados ou acedidos no seu dispositivo, para os fins acima indicados.

  • Anúncios e conteúdos personalizados, medição de anúncios e conteúdos, dados sobre o público-alvo e desenvolvimento de produtos

    Os anúncios e os conteúdos podem ser personalizados com base num perfil. Podem ser adicionados dados adicionais para uma maior personalização dos anúncios e dos conteúdos. A eficácia dos anúncios e dos conteúdos pode ser medida. Podem ser obtidas informações sobre o público que visualizou os anúncios e os conteúdos. Estes dados podem ser usados para desenvolver ou melhorar sistemas, softwares ou a experiência do utilizador.

Ao clicar em "Eu concordo”, permitirá o uso de cookies, identificadores do dispositivo e web beacons mencionados ou outras tecnologias semelhantes. As configurações do navegador do seu dispositivo podem ser alteradas.

Para certos fins, podem ser invocados interesses legítimos ao invés de consentimento. Pode ler mais informação sobre este assunto na nossa Política de Privacidade e Cookies.